Terminal Aerodrome Forecast
Issued by NWS Salt Lake City, UT

Home | Current Version | Previous Version | Text Only | Print | Product List | Glossary On
Versions: 1 2 3 4 5 6 7 8 9 10 11 12 13 14 15 16 17 18 19 20 21 22 23 24 25 26 27 28 29 30 31 32 33 34 35 36 37 38 39 40 41 42 43 44 45 46 47 48 49 50
000
FTUS45 KSLC 251742
TAFSLC
TAF
KSLC 251742Z 2518/2624 28015KT 4SM -SN BR BKN030 OVC040
      TEMPO 2518/2521 2SM -SN BR FEW008 BKN020
     FM252100 35010KT 6SM -SHSN FEW020 OVC035
      TEMPO 2521/2601 4SM -SN BR BKN020
     FM260500 03005KT P6SM VCSH FEW040 OVC050
     FM261500 35008KT P6SM SCT040 BKN060=

USA.gov is the U.S. government's official web portal to all federal, state and local government web resources and services.